Location: Boiro
(42.6475°N, 8.8834°W)
Time: 07:41:29
(UTC+01:00)

SR - Pass Details

Date: 07 December 2021
Orbit: 583 x 872 km, 66.7° (Epoch: 16 January)

Event Time Altitude Azimuth Distance (km) Brightness Sun altitude
Rises 10:07:25 0° 315° (NW) 2,846 ? 10.2°
Reaches altitude 10° 10:10:01 10° 299° (WNW) 1,967 ? 10.5°
Maximum altitude 10:13:23 22° 250° (WSW) 1,396 ? 10.9°
Drops below altitude 10° 10:16:53 10° 200° (SSW) 2,060 ? 11.4°
Sets 10:19:41 0° 185° (S) 3,022 ? 11.7°
